Regional Weather Roundup
Issued by NWS Sioux Falls, SD

Home | Current Version | Previous Version | Text Only | Print | Product List | Glossary On
Versions: 1 2 3 4 5 6 7 8 9 10 11 12 13 14 15 16 17 18 19 20 21 22 23 24 25 26 27 28 29 30 31 32 33 34 35 36 37 38 39 40 41 42 43 44 45 46 47 48 49 50
000
ASUS43 KFSD 150910
RWRFSD

WEATHER ROUNDUP FOR SE SOUTH DAKOTA/SW MINNESOTA/NW IOWA
NATIONAL WEATHER SERVICE SIOUX FALLS SD
400 AM CDT MON SEP 15 2014

NOTE: "FAIR" INDICATES FEW OR NO CLOUDS BELOW 12,000 FEET WITH NO
SIGNIFICANT WEATHER AND OR OBSTRUCTIONS TO VISIBILITY.


SDZ038>040-050-052>070-151000-
SOUTHEAST SOUTH DAKOTA

CITY           SKY/WX    TMP DP  RH WIND       PRES   REMARKS
CHAMBERLAIN    CLOUDY    50  43  75 N6        30.21R
HURON          CLOUDY    49  44  83 N7        30.21R
MADISON        LGT RAIN  46  46 100 N5        30.18S
MITCHELL       CLOUDY    49  47  93 CALM      30.20S
SIOUX FALLS    LGT RAIN  49  47  93 N6        30.18R
WINNER         CLOUDY    50  45  83 NW3       30.21S
YANKTON        CLOUDY    52  45  76 N15       30.16R
$$

MNZ071-072-080-081-089-090-097-098-151000-
SOUTHWEST MINNESOTA

CITY           SKY/WX    TMP DP  RH WIND       PRES   REMARKS
FAIRMONT       CLOUDY    48  45  87 NW6       30.16R
JACKSON        CLOUDY    50  46  87 N6        30.16S
LUVERNE        LGT RAIN  50  46  87 NE3       30.17R
MARSHALL       CLOUDY    48  45  87 NW5       30.16S
MONTEVIDEO     CLOUDY    48  45  87 N6        30.17S
PIPESTONE      RAIN      48  46  93 CALM      30.17S
REDWOOD FALLS  CLOUDY    50  49  96 CALM      30.16R
TRACY          DRIZZLE   49  48  95 CALM      30.17R
WINDOM         LGT RAIN  48  46  93 CALM      30.16S
WORTHINGTON    CLOUDY    48  46  93 N8        30.16S
$$

IAZ001>003-012>014-020>022-031-032-NEZ013-014-SDZ071-151000-
NORTHWEST IOWA

CITY           SKY/WX    TMP DP  RH WIND       PRES   REMARKS
CHEROKEE       CLOUDY    52  47  83 N7        30.10F
DENISON        PTCLDY    55  55 100 CALM      30.04F
ESTHERVILLE    LGT RAIN  49  48  97 N8        30.14R FOG
LE MARS        CLOUDY    54  46  76 NE8G16    30.11S
ORANGE CITY    CLOUDY    54  46  76 NE7       30.12R
SHELDON        LGT RAIN  48  48 100 NE12G17   30.12F
SIOUX CITY     PTCLDY    54  49  83 NE8       30.08R
SPENCER        LGT RAIN  51  47  86 NE13      30.14R
STORM LAKE     CLOUDY    52  48  87 NE10G17   30.09S
$$

ABBREVIATIONS USED IN REMARKS
   TC - TEMPERATURE IN CELSIUS
  WCI - WIND CHILL INDEX
   HX - HEAT INDEX
  VSB - VISIBILITY



USA.gov is the U.S. government's official web portal to all federal, state and local government web resources and services.